Terug naar catalogus

STARLINK-2742

ActiefCommunicatieVLEO
NORAD 48688·PAYLOAD·🇺🇸 United States

Gelanceerd May 26, 2021 vanaf Cape Canaveral Space Force Station

Loading…

Volgende Passages (komende 24 uur)

TLE

VersSource: CelesTrak SupGP

Epoch: Sep 14, 2026, 20:49 UTC

1 48688C 21044BC  26257.86784722  .00049762  00000+0  16010-2 0  2575
2 48688  53.1572 264.7948 0001342  84.3843 287.4640 15.31662038    16

Volg STARLINK-2742 in realtime met AllMySat

Download on the App Store